Weather History for Eagle, CO

Change the Weather History Date:

Tuesday, August 27, 2013

  Actual Average Record
Temperature  
Mean Temperature 68 °F -  
Max Temperature 86 °F 82 °F 90 °F (1969)
Min Temperature 51 °F 43 °F 27 °F (1992)
Cooling Degree Days 4    
Growing Degree Days 18 (Base 50)    
Moisture  
Dew Point 53 °F    
Average Humidity 62    
Maximum Humidity 88    
Minimum Humidity 23    
Precipitation  
Precipitation 0.00 in - - ()
Sea Level Pressure  
Sea Level Pressure 30.28 in    
Wind  
Wind Speed 5 mph (ENE)    
Max Wind Speed 15 mph    
Max Gust Speed 29 mph    
Visibility 10 miles    
Events      
Averages and records for this station are not official NWS values.
T = Trace of Precipitation, MM = Missing Value Source: NWS Daily Summary

Daily Weather History Graph

Daily Weather History Graph

Search for Another Location

Airport:

Trip Planner

Search our weather history database for the weather conditions in past years. The results will help you decide how hot, cold, wet, or windy it might be!

Date:

Astronomy

Aug. 27, 2013 Rise Set
Actual Time 6:31 AM MDT 7:45 PM MDT
Civil Twilight 6:03 AM MDT 8:13 PM MDT
Nautical Twilight 5:30 AM MDT 8:47 PM MDT
Astronomical Twilight 4:55 AM MDT 9:21 PM MDT
Moon 11:42 PM MDT (8/27) 1:30 PM MDT (8/27)
Length of Visible Light 14h 10m
Length of Day
13h 14m
Waning Gibbous, 56% of the Moon is Illuminated
Aug 27
Waning Gibbous
Aug 28
Last Quarter
Sep 5
New
Sep 12
First Quarter
Sep 19
Full

Hourly Weather History & Observations

Time (MDT) Temp. Dew Point Humidity Pressure Visibility Wind Dir Wind Speed Gust Speed Precip Events Conditions
6:50 AM 51.8 °F 48.2 °F 88% 30.38 in 10.0 mi Calm Calm - N/A   Clear
7:50 AM 55.4 °F 51.8 °F 88% 30.39 in 10.0 mi Calm Calm - N/A   Clear
8:50 AM 59.0 °F 51.8 °F 77% 30.38 in 10.0 mi Calm Calm - N/A   Partly Cloudy
9:50 AM 66.2 °F 51.8 °F 60% 30.37 in 10.0 mi Calm Calm - N/A   Partly Cloudy
10:50 AM 69.8 °F 51.8 °F 53% 30.35 in 10.0 mi Calm Calm - N/A   Partly Cloudy
11:50 AM 75.2 °F 51.8 °F 44% 30.31 in 10.0 mi Calm Calm - N/A   Partly Cloudy
1:50 PM 82.4 °F 46.4 °F 28% 30.24 in 10.0 mi Variable 6.9 mph - N/A   Scattered Clouds
2:50 PM 84.2 °F 46.4 °F 27% 30.22 in 10.0 mi WSW 6.9 mph - N/A   Scattered Clouds
4:50 PM 86.0 °F 44.6 °F 23% 30.18 in 10.0 mi West 15.0 mph - N/A   Mostly Cloudy
5:50 PM 86.0 °F 44.6 °F 23% 30.18 in 10.0 mi WSW 11.5 mph 17.3 mph N/A   Mostly Cloudy
6:50 PM 78.8 °F 48.2 °F 34% 30.20 in 10.0 mi NE 12.7 mph - N/A   Mostly Cloudy
7:15 PM 69.8 °F 55.4 °F 60% 30.21 in 10.0 mi ENE 12.7 mph - N/A   Clear
7:35 PM 69.8 °F 53.6 °F 56% 30.21 in 10.0 mi ENE 12.7 mph - N/A   Clear
7:55 PM 69.8 °F 53.6 °F 56% 30.22 in 10.0 mi ENE 12.7 mph - N/A   Mostly Cloudy
8:15 PM 69.8 °F 53.6 °F 56% 30.24 in 10.0 mi ENE 11.5 mph - N/A   Overcast
8:35 PM 69.8 °F 55.4 °F 60% 30.24 in 10.0 mi ENE 15.0 mph 28.8 mph N/A   Overcast
8:55 PM 68.0 °F 57.2 °F 68% 30.25 in 10.0 mi ENE 6.9 mph - N/A   Mostly Cloudy
9:15 PM 66.2 °F 57.2 °F 73% 30.26 in 10.0 mi ENE 6.9 mph 18.4 mph N/A   Overcast
9:35 PM 66.2 °F 57.2 °F 73% 30.27 in 10.0 mi NE 9.2 mph - N/A   Scattered Clouds
9:55 PM 66.2 °F 57.2 °F 73% 30.28 in 10.0 mi SE 6.9 mph - N/A   Partly Cloudy
10:15 PM 66.2 °F 57.2 °F 73% 30.29 in 10.0 mi Calm Calm - N/A   Clear
10:35 PM 64.4 °F 59.0 °F 83% 30.29 in 10.0 mi East 8.1 mph - N/A   Clear
10:55 PM 62.6 °F 57.2 °F 82% 30.30 in 10.0 mi East 8.1 mph - N/A   Scattered Clouds
11:15 PM 62.6 °F 59.0 °F 88% 30.30 in 10.0 mi East 5.8 mph - N/A   Overcast
11:35 PM 62.6 °F 59.0 °F 88% 30.31 in 10.0 mi ENE 3.5 mph - N/A   Overcast
11:55 PM 62.6 °F 57.2 °F 82% 30.31 in 10.0 mi ESE 3.5 mph - N/A   Overcast